DW6619 Weather Reports


Display with metric or nautical units.
time (UTC)temp
F
wind
direction
speed
MPH
gust
MPH
rain 1hr
in
rain 24hr
in
rain mn
in
humidity
%
barometer
mb
20260510123028 59 194 0.0 0.0 0.00 0.00 0.00 82 1013.6
20260510121551 56 230 0.0 0.0 0.00 0.00 0.00 83 1013.4
20260510120021 54 230 0.0 0.0 0.00 0.00 0.00 83 1013.2
20260510114523 53 230 0.0 0.0 0.00 0.00 0.00 83 1013.0
20260510113019 52 230 0.0 0.0 0.00 0.00 0.00 84 1012.8
20260510111538 51 230 0.0 0.0 0.00 0.00 0.00 84 1012.5
20260510110015 50 230 0.0 0.0 0.00 0.00 0.00 84 1012.4
20260510104511 50 230 0.0 0.0 0.00 0.00 0.00 85 1012.1
20260510103009 49 190 0.0 0.0 0.00 0.00 0.00 85 1011.9
20260510101548 50 190 0.0 0.0 0.00 0.00 0.00 85 1011.7
20260510100010 51 190 0.0 0.0 0.00 0.00 0.00 85 1011.6
20260510094549 51 190 0.0 0.0 0.00 0.00 0.00 84 1011.6
20260510093028 50 190 0.0 0.0 0.00 0.00 0.00 85 1011.6
20260510091526 50 190 0.0 0.0 0.00 0.00 0.00 86 1011.6
20260510090023 50 190 0.0 0.0 0.00 0.00 0.00 86 1011.5
20260510084520 50 190 0.0 0.0 0.00 0.00 0.00 86 1011.5
20260510083009 50 190 0.0 0.0 0.00 0.00 0.00 86 1011.2
20260510081531 50 190 0.0 0.0 0.00 0.00 0.00 87 1011.1
20260510080031 51 190 0.0 0.0 0.00 0.00 0.00 86 1011.0
20260510074517 51 190 0.0 0.0 0.00 0.00 0.00 87 1010.9
20260510073010 51 190 0.0 0.0 0.00 0.00 0.00 87 1010.5
20260510071528 52 190 0.0 0.0 0.00 0.00 0.00 87 1010.6
20260510070025 52 190 0.0 0.0 0.00 0.00 0.00 87 1010.5
20260510064520 52 190 0.0 0.0 0.00 0.00 0.00 87 1010.1
20260510063018 53 190 0.0 0.0 0.00 0.00 0.00 87 1010.1
20260510061522 53 190 0.0 0.0 0.00 0.00 0.00 87 1010.1
20260510060017 54 190 0.0 0.0 0.00 0.00 0.00 87 1010.1
20260510054512 54 190 0.0 0.0 0.00 0.00 0.00 87 1010.2
20260510053011 55 190 0.0 0.0 0.00 0.00 0.00 87 1010.1
20260510051510 55 190 0.0 0.0 0.00 0.00 0.00 87 1010.2
20260510050024 56 190 0.0 0.0 0.00 0.00 0.00 87 1010.2
20260510044514 56 190 0.0 0.0 0.00 0.00 0.00 87 1010.1
20260510043012 56 190 0.0 0.0 0.00 0.00 0.00 87 1009.9
20260510041529 57 190 0.0 0.0 0.00 0.00 0.00 87 1010.0
20260510040023 57 190 0.0 0.0 0.00 0.00 0.00 86 1009.9
20260510034522 58 190 0.0 0.0 0.00 0.00 0.00 86 1009.8
20260510033020 58 190 0.0 0.0 0.00 0.00 0.00 85 1009.8
20260510031513 59 190 0.0 0.0 0.00 0.00 0.00 84 1009.8
20260510030028 59 190 0.0 0.0 0.00 0.00 0.00 83 1009.8
20260510024510 60 190 0.0 0.0 0.00 0.00 0.00 82 1009.7
20260510023010 61 190 0.0 0.0 0.00 0.00 0.00 81 1009.6
20260510021528 61 190 0.0 0.0 0.00 0.00 0.00 80 1009.5
20260510020009 62 190 0.0 0.0 0.00 0.00 0.00 80 1009.2
20260510014524 62 190 0.0 0.0 0.00 0.00 0.00 79 1009.1
20260510013044 62 190 0.0 0.0 0.00 0.00 0.00 78 1008.9
20260510011519 62 190 0.0 0.0 0.00 0.00 0.00 75 1008.6
20260510010010 63 190 0.0 0.0 0.00 0.00 0.00 72 1008.4
20260510004511 65 190 0.0 0.0 0.00 0.00 0.00 70 1008.2
20260510003030 66 190 0.0 0.0 0.00 0.00 0.00 67 1008.2
20260510001535 68 190 0.0 0.0 0.00 0.00 0.00 64 1008.1
20260510000023 69 190 0.0 0.0 0.00 0.00 0.00 62 1008.1
20260509234522 71 190 0.0 0.0 0.00 0.00 0.00 59 1007.9
20260509233018 72 190 0.0 0.0 0.00 0.00 0.00 57 1007.8
20260509231516 72 189 0.0 0.0 0.00 0.00 0.00 56 1007.8
20260509230018 73 227 0.0 0.0 0.00 0.00 0.00 55 1007.8
20260509224514 74 200 0.0 0.0 0.00 0.00 0.00 55 1007.7
20260509223011 74 195 0.0 0.0 0.00 0.00 0.00 54 1007.8
20260509221531 75 200 0.0 0.0 0.00 0.00 0.00 54 1007.9
20260509220028 75 194 0.0 0.0 0.00 0.00 0.00 52 1007.9
20260509214527 75 207 0.0 0.0 0.00 0.00 0.00 46 1007.8
20260509213048 76 183 0.0 0.0 0.00 0.00 0.00 45 1007.6
20260509211524 77 210 0.0 0.0 0.00 0.00 0.00 45 1007.5
20260509210044 79 180 2.0 7.0 0.00 0.00 0.00 43 1007.5
20260509204523 79 260 0.0 0.0 0.00 0.00 0.00 46 1007.4
20260509203017 79 188 0.0 0.0 0.00 0.00 0.00 46 1007.5
20260509201538 78 196 0.0 0.0 0.00 0.00 0.00 50 1007.5
20260509200010 77 173 0.0 5.0 0.00 0.00 0.00 49 1007.7
20260509194526 75 217 0.0 2.0 0.00 0.00 0.00 52 1008.0
20260509193019 73 203 0.0 0.0 0.00 0.00 0.00 58 1008.3
20260509191513 72 232 0.0 0.0 0.00 0.00 0.00 57 1008.7
20260509190014 71 277 0.0 0.0 0.00 0.00 0.00 57 1008.8
20260509184523 71 182 0.0 0.0 0.00 0.00 0.00 56 1008.8
20260509183012 71 257 0.0 0.0 0.00 0.00 0.00 58 1009.0
20260509181510 71 217 0.0 0.0 0.00 0.00 0.00 58 1009.4
20260509180023 70 237 0.0 0.0 0.00 0.00 0.00 58 1009.5
20260509174520 70 254 0.0 0.0 0.00 0.00 0.00 59 1009.7
20260509173018 70 182 0.0 0.0 0.00 0.00 0.00 58 1009.8
20260509171518 71 238 1.0 16.0 0.00 0.00 0.00 56 1009.9
20260509170012 71 303 0.0 0.0 0.00 0.00 0.00 57 1009.8
20260509164509 70 190 0.0 0.0 0.00 0.00 0.00 58 1009.9
20260509163025 69 205 0.0 0.0 0.00 0.00 0.00 60 1010.1
20260509161523 70 219 0.0 0.0 0.00 0.00 0.00 59 1010.2
20260509160021 70 165 0.0 5.0 0.00 0.00 0.00 58 1010.2
20260509154516 70 201 0.0 0.0 0.00 0.00 0.00 58 1010.2
20260509153009 69 189 0.0 0.0 0.00 0.00 0.00 60 1010.4
20260509151511 69 213 0.0 0.0 0.00 0.00 0.00 58 1010.5
20260509150027 68 174 0.0 0.0 0.00 0.00 0.00 62 1010.5
20260509144523 66 213 0.0 0.0 0.00 0.00 0.00 61 1010.8
20260509143039 65 205 0.0 0.0 0.00 0.00 0.00 63 1011.0
20260509141513 64 209 0.0 0.0 0.00 0.00 0.00 64 1011.2
20260509140028 63 211 0.0 0.0 0.00 0.00 0.00 65 1011.3
20260509134522 62 232 0.0 0.0 0.00 0.00 0.00 66 1011.2
20260509133010 60 186 0.0 2.0 0.00 0.00 0.00 67 1011.2
20260509131512 60 217 0.0 0.0 0.00 0.00 0.00 67 1011.2
20260509130055 59 173 0.0 1.0 0.00 0.00 0.00 67 1011.3
20260509124545 59 211 0.0 4.0 0.00 0.00 0.00 66 1011.4